Home   Weather   Italy   Genoa   Past weeks
Flag for Italy

Past Weather in Genoa, Italy — Yesterday and Last 2 Weeks

Currently: 72 °F. Scattered clouds. (Weather station: Genova / Sestri, Italy). See more current weather

Past Weather in Genoa — Graph

°F

Genoa Temperature Yesterday

Maximum temperature yesterday: 75 °F (at 11:20 am)
Minimum temperature yesterday: 64 °F (at 5:20 am)
Average temperature yesterday: 70 °F

High & Low Weather Summary for the Past Weeks

 TemperatureHumidityPressure
High81 °F (Sep 21, 5:20 pm)100% (Sep 15, 5:20 pm)30.21 "Hg (Sep 15, 5:20 pm)
Low64 °F (Sep 20, 5:50 am)39% (Sep 10, 8:50 pm)29.77 "Hg (Sep 19, 4:50 pm)
Average73 °F71%30.00 "Hg
* Reported Sep 9 10:20 am — Sep 24 10:50 am, Genoa. Weather by CustomWeather, © 2021

Note: Actual official high and low records may vary slightly from our data, if they occured in-between our weather recording intervals... More about our weather records

Genoa Weather History for the Previous 24 Hours

Scroll right to see more
 ConditionsComfort  
Time TempWeatherWind HumidityBarometerVisibility
10:50 am
Fri, Sep 24
72 °FScattered clouds.3 mph61%30.09 "HgN/A
10:20 am72 °FScattered clouds.3 mph61%30.09 "HgN/A
9:50 am72 °FScattered clouds.3 mph53%30.09 "HgN/A
9:20 am72 °FPassing clouds.2 mph53%30.07 "HgN/A
8:50 am68 °FSunny.5 mph64%30.07 "Hg10 mi
8:20 am66 °FSunny.2 mph68%30.07 "Hg10 mi
7:50 am64 °FSunny.5 mph68%30.07 "Hg10 mi
7:20 am66 °FSunny.7 mph64%30.07 "Hg10 mi
6:50 am64 °FClear.1 mph68%30.07 "Hg10 mi
6:20 am64 °FClear.1 mph68%30.07 "Hg10 mi
5:50 am64 °FClear.1 mph68%30.07 "Hg10 mi
5:20 am64 °FClear.1 mph73%30.07 "Hg10 mi
4:50 am64 °FClear.1 mph73%30.07 "Hg10 mi
4:20 am64 °FClear.2 mph73%30.07 "Hg10 mi
3:50 am66 °FClear.1 mph64%30.07 "Hg10 mi
3:20 am66 °FClear.1 mph68%30.07 "Hg10 mi
2:50 am66 °FClear.1 mph68%30.09 "Hg10 mi
1:50 am66 °FClear.6 mph68%30.09 "Hg10 mi
1:20 am68 °FClear.5 mph69%30.09 "Hg10 mi
12:50 am68 °FClear.5 mph64%30.09 "Hg10 mi
12:20 am68 °FClear.3 mph69%30.09 "Hg10 mi
11:20 pm
Thu, Sep 23
68 °FClear.5 mph69%30.09 "Hg10 mi
10:50 pm68 °FPassing clouds.6 mph69%30.09 "HgN/A
10:20 pm68 °FClear.5 mph69%30.09 "Hg10 mi
9:50 pm68 °FClear.3 mph69%30.09 "Hg10 mi
9:20 pm70 °FClear.5 mph64%30.09 "Hg10 mi
8:50 pm70 °FPassing clouds.6 mph64%30.09 "HgN/A
8:20 pm72 °FPassing clouds.3 mph61%30.09 "HgN/A
7:50 pm72 °FClear.1 mph61%30.09 "Hg10 mi
7:20 pm72 °FSunny.2 mph61%30.09 "Hg10 mi
6:50 pm73 °FPassing clouds.3 mph57%30.12 "HgN/A
6:20 pm73 °FPassing clouds.3 mph57%30.12 "HgN/A
5:20 pm73 °FPassing clouds.5 mph61%30.12 "HgN/A
4:50 pm73 °FSunny.5 mph57%30.12 "Hg10 mi
4:20 pm73 °FSunny.6 mph57%30.12 "Hg10 mi
3:50 pm73 °FSunny.6 mph57%30.12 "Hg10 mi
3:20 pm73 °FSunny.7 mph61%30.15 "Hg10 mi
2:50 pm73 °FSunny.7 mph61%30.15 "Hg10 mi
2:20 pm73 °FSunny.8 mph61%30.15 "Hg10 mi
1:50 pm73 °FSunny.9 mph65%30.18 "Hg10 mi
1:20 pm73 °FSunny.8 mph61%30.18 "Hg10 mi
12:50 pm73 °FSunny.8 mph57%30.18 "Hg10 mi
12:20 pm73 °FSunny.10 mph61%30.18 "Hg10 mi
Weather by CustomWeather, © 2021

See weather overview